User: anonymous   Login
Location: Caribou
(46.8667°N, 68.0167°W)
Time: 13:10:46
(UTC-05:00)
Language:

SL-08 RB Rocket - Orbit

View from above orbital plane
View from above orbital plane
View from above satellite
View from above satellite

Ground track
Ground track

The orbit data is extracted from the following two-line orbital elements,

1 26387U 00033D   17020.20385314  .00000052  00000-0  17330-4 0  9993
2 26387  97.9915  88.1336 0027865  87.8255 336.0556 14.68234011886167
Epoch (UTC): 20 January 2017 04:53:32
Eccentricity: 0.0027865
inclination: 97.9915°
perigee height: 647 km
apogee height: 686 km
right ascension of ascending node: 88.1336°
argument of perigee: 87.8255°
revolutions per day: 14.68234011
mean anomaly at epoch: 336.0556°
orbit number at epoch: 88616

The dashed part of the orbit path shows where the satellite is in the earth's shadow,  

DLR